Hazlehurst, GA

5:07 AM EDT on October 22, 2019 (GMT -0400)
Hazlehurst

Weather History for KAZE - August, 2019

Change the Weather History Date:

Sunday, August 25, 2019

  Actual Average Record
Temperature  
Mean Temperature 76 °F -  
Max Temperature 81 °F 94 °F 97 °F (2017)
Min Temperature 72 °F 71 °F 69 °F (2016)
Cooling Degree Days 12    
Growing Degree Days 26 (Base 50)    
Moisture  
Dew Point 70 °F    
Average Humidity 79    
Maximum Humidity 90    
Minimum Humidity 65    
Precipitation  
Precipitation 0.00 in - - ()
Sea Level Pressure  
Sea Level Pressure 30.02 in    
Wind  
Wind Speed 4 mph (NE)    
Max Wind Speed 10 mph    
Max Gust Speed -    
Visibility 10 miles    
Events Thunderstorm    
Averages and records for this station are not official NWS values.
T = Trace of Precipitation, MM = Missing Value Source: NWS Daily Summary

Daily Weather History Graph

Daily Weather History Graph

Search for Another Location

Airport or City:

Astronomy

Aug. 25, 2019 Rise Set
Actual Time 7:01 AM EDT 8:03 PM EDT
Civil Twilight 6:36 AM EDT 8:28 PM EDT
Nautical Twilight 6:06 AM EDT 8:58 PM EDT
Astronomical Twilight 5:35 AM EDT 9:28 PM EDT
Moon 1:46 AM EDT (8/25) 4:10 PM EDT (8/25)
Length of Visible Light 13h 52m
Length of Day
13h 01m
Waning Crescent, 29% of the Moon is Illuminated
Aug 25
Waning Crescent
Aug 30
New
Sep 5
First Quarter
Sep 14
Full
Sep 21
Last Quarter

Hourly Weather History & Observations

Time (EDT) Temp. Heat Index Dew Point Humidity Pressure Visibility Wind Dir Wind Speed Gust Speed Precip Events Conditions
12:10 AM 76.1 °F - 72.3 °F 88% 30.03 in 10.0 mi Calm Calm - N/A   Scattered Clouds
12:30 AM 76.1 °F - 72.5 °F 89% 30.04 in 10.0 mi Calm Calm - N/A   Scattered Clouds
12:50 AM 76.3 °F - 72.5 °F 88% 30.04 in 10.0 mi NNE 3.5 mph - N/A Thunderstorm Clear
1:10 AM 76.1 °F - 71.8 °F 86% 30.03 in 10.0 mi NNE 3.5 mph - N/A   Clear
1:30 AM 76.3 °F - 71.6 °F 85% 30.03 in 10.0 mi NNE 5.8 mph - N/A   Clear
1:50 AM 76.3 °F - 71.8 °F 86% 30.02 in 10.0 mi NNE 3.5 mph - N/A   Mostly Cloudy
2:30 AM 76.3 °F - 72.5 °F 88% 30.01 in 10.0 mi NE 4.6 mph - N/A   Overcast
2:50 AM 76.3 °F - 72.5 °F 88% 30.00 in 10.0 mi NE 4.6 mph - N/A   Mostly Cloudy
3:10 AM 76.3 °F - 72.3 °F 87% 29.99 in 10.0 mi NE 4.6 mph - N/A   Scattered Clouds
3:30 AM 76.1 °F - 72.0 °F 87% 29.98 in 10.0 mi NNE 3.5 mph - N/A   Scattered Clouds
3:50 AM 75.7 °F - 72.1 °F 89% 29.98 in 10.0 mi NNE 5.8 mph - N/A   Clear
4:10 AM 75.6 °F - 72.0 °F 89% 29.97 in 10.0 mi NE 6.9 mph - N/A   Mostly Cloudy
4:30 AM 75.7 °F - 72.1 °F 89% 29.97 in 10.0 mi NE 5.8 mph - N/A   Overcast
4:50 AM 75.6 °F - 71.8 °F 88% 29.97 in 10.0 mi NE 10.4 mph - N/A   Overcast
5:10 AM 75.7 °F - 70.7 °F 84% 29.98 in 10.0 mi NE 5.8 mph - N/A   Overcast
5:30 AM 75.2 °F - 70.7 °F 86% 29.99 in 10.0 mi NNE 9.2 mph - N/A   Overcast
5:50 AM 74.7 °F - 70.2 °F 86% 30.00 in 10.0 mi NE 6.9 mph - N/A   Overcast
6:10 AM 74.5 °F - 70.0 °F 86% 30.00 in 10.0 mi NE 6.9 mph - N/A   Overcast
6:30 AM 74.3 °F - 70.0 °F 86% 30.01 in 10.0 mi NE 5.8 mph - N/A   Overcast
6:50 AM 73.6 °F - 70.0 °F 88% 30.02 in 7.0 mi NE 5.8 mph - N/A   Overcast
7:10 AM 73.6 °F - 70.0 °F 88% 30.03 in 10.0 mi NE 5.8 mph - N/A   Overcast
7:30 AM 73.4 °F - 69.6 °F 88% 30.03 in 10.0 mi NE 3.5 mph - N/A   Overcast
8:10 AM 73.0 °F - 69.8 °F 90% 30.05 in 4.0 mi NNE 4.6 mph - N/A   Overcast
8:30 AM 72.9 °F - 69.8 °F 90% 30.05 in 5.0 mi NNE 4.6 mph - N/A   Overcast
8:50 AM 72.7 °F - 69.4 °F 90% 30.05 in 4.0 mi North 5.8 mph - N/A   Overcast
9:10 AM 72.5 °F - 69.3 °F 90% 30.06 in 4.0 mi NNE 5.8 mph - N/A   Overcast
9:30 AM 73.0 °F - 69.1 °F 87% 30.06 in 7.0 mi NNE 3.5 mph - N/A   Overcast
9:50 AM 73.4 °F - 68.9 °F 86% 30.06 in 7.0 mi NE 5.8 mph - N/A   Overcast
10:10 AM 73.4 °F - 68.7 °F 85% 30.07 in 7.0 mi NNE 5.8 mph - N/A   Overcast
10:30 AM 73.6 °F - 68.4 °F 84% 30.07 in 10.0 mi NE 4.6 mph - N/A   Overcast
10:50 AM 74.3 °F - 68.5 °F 82% 30.07 in 10.0 mi NE 9.2 mph - N/A   Overcast
11:10 AM 73.6 °F - 68.2 °F 83% 30.07 in 10.0 mi NE 6.9 mph - N/A   Overcast
11:30 AM 73.6 °F - 68.2 °F 83% 30.07 in 10.0 mi ENE 6.9 mph - N/A   Overcast
11:50 AM 73.0 °F - 68.0 °F 84% 30.07 in 10.0 mi NNE 5.8 mph - N/A   Overcast
12:10 PM 74.5 °F - 68.2 °F 81% 30.07 in 10.0 mi ENE 4.6 mph - N/A   Overcast
12:30 PM 75.6 °F - 67.8 °F 77% 30.06 in 10.0 mi ENE 5.8 mph - N/A   Overcast
12:50 PM 75.6 °F - 67.6 °F 76% 30.06 in 10.0 mi NE 5.8 mph - N/A   Overcast
1:10 PM 77.2 °F - 68.0 °F 73% 30.06 in 10.0 mi NE 5.8 mph - N/A   Overcast
1:30 PM 76.8 °F - 67.8 °F 74% 30.05 in 10.0 mi ENE 4.6 mph - N/A   Overcast
1:50 PM 77.2 °F - 68.0 °F 73% 30.05 in 10.0 mi NNE 4.6 mph - N/A   Overcast
2:10 PM 78.1 °F - 68.0 °F 71% 30.05 in 10.0 mi NE 4.6 mph - N/A   Overcast
2:30 PM 78.6 °F - 68.0 °F 70% 30.04 in 10.0 mi NE 5.8 mph - N/A   Overcast
2:50 PM 79.5 °F - 68.0 °F 68% 30.03 in 10.0 mi ESE 5.8 mph - N/A   Overcast
3:10 PM 79.7 °F - 68.2 °F 68% 30.02 in 10.0 mi ENE 4.6 mph - N/A   Overcast
3:30 PM 80.8 °F 83.8 °F 68.7 °F 67% 30.02 in 10.0 mi North 5.8 mph - N/A   Overcast
3:50 PM 80.8 °F 83.5 °F 68.2 °F 65% 30.01 in 10.0 mi ENE 6.9 mph - N/A   Overcast
4:10 PM 81.1 °F 84.0 °F 68.5 °F 65% 30.00 in 10.0 mi ENE 3.5 mph - N/A   Overcast
4:30 PM 81.0 °F 83.9 °F 68.7 °F 66% 30.00 in 10.0 mi NE 3.5 mph - N/A   Overcast
4:50 PM 80.6 °F 83.5 °F 68.7 °F 67% 30.00 in 10.0 mi Calm Calm - N/A   Overcast
5:10 PM 80.8 °F 83.8 °F 68.9 °F 67% 29.99 in 10.0 mi Calm Calm - N/A   Overcast
5:30 PM 81.5 °F 84.8 °F 69.1 °F 66% 29.99 in 10.0 mi Calm Calm - N/A   Overcast
5:50 PM 81.5 °F 84.9 °F 69.6 °F 67% 29.99 in 10.0 mi Calm Calm - N/A   Overcast
6:10 PM 81.5 °F 84.9 °F 69.8 °F 67% 30.00 in 10.0 mi Calm Calm - N/A   Overcast
6:30 PM 81.5 °F 84.9 °F 69.8 °F 67% 30.00 in 10.0 mi Calm Calm - N/A   Overcast
6:50 PM 80.6 °F 83.9 °F 69.8 °F 70% 29.99 in 10.0 mi Calm Calm - N/A   Overcast
7:10 PM 80.6 °F 83.9 °F 70.0 °F 70% 29.99 in 10.0 mi North 3.5 mph - N/A   Overcast
7:30 PM 80.1 °F 83.3 °F 70.3 °F 72% 29.99 in 10.0 mi Calm Calm - N/A   Mostly Cloudy
7:50 PM 79.3 °F - 70.7 °F 75% 29.99 in 10.0 mi Calm Calm - N/A   Scattered Clouds
8:10 PM 78.8 °F - 70.7 °F 76% 30.00 in 10.0 mi NNE 3.5 mph - N/A   Clear
8:30 PM 78.4 °F - 70.9 °F 77% 30.01 in 10.0 mi Calm Calm - N/A   Mostly Cloudy
8:50 PM 78.6 °F - 70.9 °F 77% 30.01 in 10.0 mi Calm Calm - N/A   Overcast
9:10 PM 78.1 °F - 71.1 °F 79% 30.02 in 10.0 mi NNE 3.5 mph - N/A   Overcast
9:30 PM 77.9 °F - 70.9 °F 79% 30.03 in 10.0 mi Calm Calm - N/A   Mostly Cloudy
9:50 PM 77.9 °F - 70.9 °F 79% 30.03 in 10.0 mi Calm Calm - N/A   Mostly Cloudy
10:10 PM 77.7 °F - 70.7 °F 79% 30.03 in 10.0 mi NE 3.5 mph - N/A   Mostly Cloudy
10:30 PM 77.4 °F - 70.3 °F 79% 30.03 in 10.0 mi East 3.5 mph - N/A   Clear
10:50 PM 77.2 °F - 69.6 °F 77% 30.03 in 10.0 mi East 6.9 mph - N/A   Clear
11:10 PM 77.2 °F - 68.2 °F 74% 30.03 in 10.0 mi East 5.8 mph - N/A   Clear
11:30 PM 77.0 °F - 68.0 °F 74% 30.04 in 10.0 mi East 3.5 mph - N/A   Clear
11:50 PM 76.6 °F - 67.6 °F 74% 30.04 in 10.0 mi Calm Calm - N/A   Clear